When you browse on this site, cookies collect data to enhance your experience and personalize the content and advertising you see.
Visit our Privacy Policy to learn more. By continuing to use the site, you agree to this use of cookies and data.
  • în România
  • Lista ţărilor
  • Pe 7 zile
  • Temperatura apei
  • Hartă satelitară
  • Meteo pe hartă
  • Widget-uri
  • user-avatar
    Intrare

    Meteo pe oră la Kreschenskoe

    Astăzi, 20 Februarie, Miercuri

    Timp Temperatura Precipitaţii Vânt Presiune Umiditate
    00:00 -19°C° 0 mm 2 m/s 734 mmHg 95%
    01:00 -19°C° 0 mm 2 m/s 734 mmHg 96%
    02:00 -18°C° 0 mm 1 m/s 734 mmHg 96%
    03:00 -19°C° 0 mm 1 m/s 734 mmHg 97%
    04:00 -19°C° 0 mm 0 m/s 734 mmHg 98%
    05:00 -19°C° 0 mm 0 m/s 735 mmHg 97%
    06:00 -20°C° 0 mm 0 m/s 735 mmHg 97%
    07:00 -20°C° 0 mm 0 m/s 735 mmHg 97%
    08:00 -18°C° 0 mm 1 m/s 735 mmHg 95%
    09:00 -17°C° 0 mm 1 m/s 736 mmHg 93%
    10:00 -17°C° 0 mm 2 m/s 736 mmHg 91%
    11:00 -16°C° 0 mm 2 m/s 736 mmHg 90%
    12:00 -16°C° 0 mm 3 m/s 736 mmHg 90%
    13:00 -15°C° 0 mm 3 m/s 736 mmHg 89%
    14:00 -15°C° 0 mm 3 m/s 736 mmHg 90%
    15:00 -16°C° 0 mm 4 m/s 736 mmHg 90%
    16:00 -16°C° 0 mm 4 m/s 735 mmHg 90%
    17:00 -16°C° 0 mm 4 m/s 735 mmHg 91%
    18:00 -18°C° 0 mm 5 m/s 735 mmHg 91%
    19:00 -18°C° 0 mm 5 m/s 735 mmHg 92%
    20:00 -18°C° 0 mm 6 m/s 735 mmHg 92%
    21:00 -17°C° 0 mm 6 m/s 734 mmHg 91%
    22:00 -16°C° 0 mm 6 m/s 734 mmHg 91%
    23:00 -16°C° 0 mm 6 m/s 734 mmHg 91%

    Mâine, 21 Februarie, Joi

    Timp Temperatura Precipitaţii Vânt Presiune Umiditate
    00:00 -16°C° 0 mm 6 m/s 733 mmHg 91%
    01:00 -16°C° 0 mm 6 m/s 733 mmHg 91%
    02:00 -15°C° 0.1 mm 6 m/s 733 mmHg 92%
    03:00 -14°C° 0.1 mm 7 m/s 733 mmHg 92%
    04:00 -13°C° 0.1 mm 7 m/s 733 mmHg 92%
    05:00 -13°C° 0.1 mm 7 m/s 733 mmHg 92%
    06:00 -12°C° 0.1 mm 7 m/s 733 mmHg 92%
    07:00 -12°C° 0.1 mm 7 m/s 733 mmHg 92%
    08:00 -11°C° 0.1 mm 7 m/s 733 mmHg 92%
    09:00 -11°C° 0.1 mm 7 m/s 733 mmHg 91%
    10:00 -11°C° 0.1 mm 7 m/s 733 mmHg 91%
    11:00 -9°C° 0.2 mm 7 m/s 733 mmHg 92%
    12:00 -9°C° 0.2 mm 6 m/s 733 mmHg 92%
    13:00 -9°C° 0.2 mm 6 m/s 733 mmHg 92%
    14:00 -9°C° 0.3 mm 6 m/s 733 mmHg 92%
    15:00 -9°C° 0.3 mm 6 m/s 733 mmHg 93%
    16:00 -9°C° 0.3 mm 6 m/s 733 mmHg 93%
    17:00 -9°C° 0.4 mm 6 m/s 734 mmHg 93%
    18:00 -8°C° 0.4 mm 6 m/s 734 mmHg 93%
    19:00 -8°C° 0.4 mm 6 m/s 734 mmHg 93%
    20:00 -8°C° 0.3 mm 6 m/s 734 mmHg 93%
    21:00 -8°C° 0.3 mm 6 m/s 734 mmHg 93%
    22:00 -8°C° 0.3 mm 6 m/s 734 mmHg 92%
    23:00 -8°C° 0.4 mm 6 m/s 734 mmHg 93%

    Poimâine, 22 Februarie, Vineri

    Timp Temperatura Precipitaţii Vânt Presiune Umiditate
    00:00 -6°C° 0.4 mm 6 m/s 734 mmHg 93%
    01:00 -5°C° 0.4 mm 6 m/s 734 mmHg 93%
    02:00 -5°C° 0.3 mm 6 m/s 734 mmHg 92%
    03:00 -6°C° 0.3 mm 7 m/s 734 mmHg 91%
    04:00 -6°C° 0.3 mm 7 m/s 734 mmHg 90%
    05:00 -6°C° 0.1 mm 7 m/s 734 mmHg 90%
    06:00 -6°C° 0.1 mm 7 m/s 734 mmHg 90%
    07:00 -7°C° 0.1 mm 7 m/s 734 mmHg 90%
    08:00 -7°C° 0.1 mm 7 m/s 734 mmHg 90%
    09:00 -7°C° 0.1 mm 7 m/s 734 mmHg 90%
    10:00 -7°C° 0.1 mm 7 m/s 734 mmHg 91%
    11:00 -6°C° 0.2 mm 7 m/s 734 mmHg 91%
    12:00 -6°C° 0.2 mm 7 m/s 734 mmHg 91%
    13:00 -6°C° 0.2 mm 7 m/s 734 mmHg 91%
    14:00 -4°C° 0.3 mm 7 m/s 734 mmHg 90%
    15:00 -4°C° 0.3 mm 6 m/s 734 mmHg 90%
    16:00 -4°C° 0.3 mm 6 m/s 734 mmHg 89%
    17:00 -4°C° 0.4 mm 6 m/s 734 mmHg 90%
    18:00 -4°C° 0.4 mm 5 m/s 734 mmHg 91%
    19:00 -4°C° 0.4 mm 5 m/s 734 mmHg 93%
    20:00 -4°C° 0.5 mm 5 m/s 735 mmHg 93%
    21:00 -5°C° 0.5 mm 5 m/s 735 mmHg 93%
    22:00 -5°C° 0.5 mm 5 m/s 735 mmHg 94%
    23:00 -7°C° 0.2 mm 5 m/s 736 mmHg 92%

    23 Februarie, Sâmbătă

    Timp Temperatura Precipitaţii Vânt Presiune Umiditate
    00:00 -9°C° 0.2 mm 4 m/s 736 mmHg 90%
    01:00 -12°C° 0.2 mm 4 m/s 737 mmHg 89%
    02:00 -12°C° 0 mm 4 m/s 737 mmHg 90%
    03:00 -14°C° 0 mm 4 m/s 738 mmHg 92%
    04:00 -14°C° 0 mm 4 m/s 739 mmHg 93%
    05:00 -14°C° 0.1 mm 4 m/s 739 mmHg 93%
    06:00 -13°C° 0.1 mm 5 m/s 739 mmHg 93%
    07:00 -12°C° 0.1 mm 5 m/s 740 mmHg 93%
    08:00 -12°C° 0.1 mm 5 m/s 740 mmHg 92%
    09:00 -12°C° 0.1 mm 5 m/s 740 mmHg 92%
    10:00 -11°C° 0.1 mm 5 m/s 741 mmHg 91%
    11:00 -11°C° 0.2 mm 5 m/s 741 mmHg 91%
    12:00 -11°C° 0.2 mm 5 m/s 741 mmHg 90%
    13:00 -10°C° 0.2 mm 5 m/s 741 mmHg 90%
    14:00 -10°C° 0.2 mm 5 m/s 741 mmHg 90%
    15:00 -10°C° 0.2 mm 5 m/s 741 mmHg 91%
    16:00 -10°C° 0.2 mm 5 m/s 741 mmHg 91%
    17:00 -10°C° 0.1 mm 4 m/s 742 mmHg 92%
    18:00 -10°C° 0.1 mm 4 m/s 742 mmHg 93%
    19:00 -10°C° 0.1 mm 4 m/s 742 mmHg 94%
    20:00 -10°C° 0.1 mm 4 m/s 743 mmHg 94%
    21:00 -10°C° 0.1 mm 4 m/s 743 mmHg 95%
    22:00 -11°C° 0.1 mm 4 m/s 743 mmHg 95%
    23:00 -11°C° 0.1 mm 4 m/s 743 mmHg 95%

    24 Februarie, Duminică

    Timp Temperatura Precipitaţii Vânt Presiune Umiditate
    00:00 -11°C° 0.1 mm 4 m/s 744 mmHg 95%
    01:00 -12°C° 0.1 mm 4 m/s 744 mmHg 95%
    02:00 -12°C° 0.1 mm 4 m/s 744 mmHg 95%
    03:00 -11°C° 0.1 mm 4 m/s 744 mmHg 95%
    04:00 -11°C° 0.1 mm 4 m/s 744 mmHg 95%
    05:00 -11°C° 0.1 mm 4 m/s 744 mmHg 95%
    06:00 -11°C° 0.1 mm 4 m/s 745 mmHg 95%
    07:00 -10°C° 0.1 mm 4 m/s 745 mmHg 95%
    08:00 -10°C° 0.1 mm 4 m/s 745 mmHg 94%
    09:00 -10°C° 0.1 mm 4 m/s 745 mmHg 94%
    10:00 -11°C° 0.1 mm 5 m/s 746 mmHg 93%
    11:00 -10°C° 0.1 mm 5 m/s 745 mmHg 92%
    12:00 -10°C° 0.1 mm 5 m/s 745 mmHg 91%
    13:00 -10°C° 0.1 mm 6 m/s 745 mmHg 90%
    14:00 -10°C° 0.1 mm 5 m/s 745 mmHg 90%
    15:00 -10°C° 0.1 mm 5 m/s 745 mmHg 89%
    16:00 -10°C° 0.1 mm 5 m/s 745 mmHg 89%
    17:00 -10°C° 0.1 mm 5 m/s 745 mmHg 90%
    18:00 -11°C° 0.1 mm 5 m/s 745 mmHg 91%
    19:00 -10°C° 0.1 mm 4 m/s 746 mmHg 92%
    20:00 -11°C° 0 mm 4 m/s 745 mmHg 92%
    21:00 -12°C° 0 mm 5 m/s 745 mmHg 92%
    22:00 -12°C° 0 mm 5 m/s 745 mmHg 92%
    23:00 -12°C° 0.1 mm 5 m/s 745 mmHg 93%

    25 Februarie, Luni

    Timp Temperatura Precipitaţii Vânt Presiune Umiditate
    00:00 -13°C° 0.1 mm 5 m/s 745 mmHg 93%
    01:00 -13°C° 0.1 mm 5 m/s 745 mmHg 93%
    02:00 -13°C° 0.1 mm 5 m/s 745 mmHg 94%
    03:00 -14°C° 0.1 mm 5 m/s 745 mmHg 94%
    04:00 -14°C° 0.1 mm 5 m/s 745 mmHg 94%
    05:00 -14°C° 0.1 mm 4 m/s 744 mmHg 95%
    06:00 -14°C° 0.1 mm 4 m/s 744 mmHg 95%
    07:00 -15°C° 0.1 mm 4 m/s 744 mmHg 95%
    08:00 -14°C° 0.1 mm 4 m/s 744 mmHg 95%
    09:00 -14°C° 0.1 mm 4 m/s 743 mmHg 94%
    10:00 -12°C° 0.1 mm 4 m/s 743 mmHg 94%
    11:00 -12°C° 0.1 mm 4 m/s 743 mmHg 93%
    12:00 -11°C° 0.1 mm 4 m/s 742 mmHg 93%
    13:00 -10°C° 0.1 mm 4 m/s 742 mmHg 92%
    14:00 -10°C° 0 mm 4 m/s 741 mmHg 92%
    15:00 -10°C° 0 mm 4 m/s 741 mmHg 92%
    16:00 -9°C° 0 mm 4 m/s 740 mmHg 92%
    17:00 -9°C° 0 mm 4 m/s 740 mmHg 92%
    18:00 -8°C° 0 mm 3 m/s 740 mmHg 92%
    19:00 -8°C° 0 mm 3 m/s 739 mmHg 93%
    20:00 -8°C° 0 mm 3 m/s 739 mmHg 93%
    21:00 -7°C° 0 mm 3 m/s 738 mmHg 94%
    22:00 -7°C° 0 mm 3 m/s 738 mmHg 95%
    23:00 -7°C° 0 mm 3 m/s 737 mmHg 95%
    Arată mai mult